[[{"header":{"parameterUnit":"m.s-1","parameterCategory":1,"la1":30.2991,"la2":30.254,"lo1":-89.0895,"lo2":-89.0444,"dx":0.0017,"dy":0.0017,"nx":28,"ny":28,"refTime":"2022-12-29T15:00:00:Z","depth":0,"parameterNumber":2,"parameterNumberName":"U-component_of_WINDS"},"data":[0,0,0,0,0,0,0,0,0,0,0,0,0,0,0,0,0,0,0,0,0,0,0,0,0,0,0,0,0,0,0,0,0,0,0,0,0,0,0,0,0,0,0,0,0,0,0,0,0,0,0,0,0,0,0,0,0,0,0.3646,0.3646,0,0.3641,0.3641,0.3641,0.3646,0.3647,0.3647,0.3647,0.3642,0.3641,0.3641,0,0,0,0,0,0,0,0,0,0,0,0,0,0.366,0.366,0.3646,0.3646,0.3646,0.3641,0.3641,0.3641,0.3646,0.3647,0.3647,0.3647,0.3642,0.3641,0.3641,0,0,0,0,0,0,0,0,0,0,0,0,0,0.3655,0.366,0.3646,0.3648,0.3648,0.3641,0.3641,0.3641,0.3646,0.3647,0.3647,0.3647,0.3642,0.3641,0.3641,0.3632,0,0,0.364,0.3639,0,0,0,0,0,0,0,0,0.3655,0.3654,0.3648,0.3648,0.3648,0.3645,0.3644,0.3638,0.3646,0.3647,0.3647,0.3647,0.3642,0.3642,0.364,0.3632,0.3632,0.3639,0.3639,0.3639,0.3639,0,0,0,0,0,0,0,0.3655,0.3654,0.3644,0.3648,0.3648,0.3649,0.3649,0.3643,0.3643,0.3647,0.3647,0.3647,0.3643,0.3641,0.364,0.3632,0.364,0.3639,0.3639,0.3639,0.3618,0.3618,0,0,0,0,0,0,0.3656,0.3655,0.3644,0.3644,0.3652,0.3649,0.3648,0.3645,0.3643,0.3643,0.3646,0.3647,0.3642,0.3641,0.364,0.3631,0.3639,0.3639,0.3638,0.3618,0.3618,0.3618,0,0,0,0,0,0,0.3656,0.3655,0.3645,0.365,0.3648,0.3648,0.3645,0.3645,0.3644,0.3643,0.3643,0.3645,0.3642,0.3641,0.3635,0.3631,0.3638,0.3638,0.3619,0.3618,0.3618,0.3612,0,0,0,0,0,0,0.3656,0.3655,0.3651,0.3649,0.3648,0.3639,0.3645,0.3645,0.3643,0.3643,0.3641,0.3641,0.3642,0.3635,0.3634,0.363,0.3638,0.3619,0.3618,0.3618,0.3613,0.3612,0.3611,0,0,0,0,0,0.3657,0.3649,0.3651,0.3649,0.3643,0.3639,0.3638,0.3639,0.3642,0.3639,0.3639,0.3641,0.3632,0.3635,0.3633,0.3629,0.3619,0.3619,0.3618,0.3613,0.3612,0.3611,0,0,0,0,0,0,0.3649,0.3649,0.3651,0.3642,0.3641,0.3639,0.3635,0.3637,0.3634,0.3635,0.3637,0.3636,0.363,0.3629,0.3633,0.3622,0.3626,0.3625,0.3623,0.3621,0.362,0.3621,0.3637,0,0,0,0,0,0.3647,0.3643,0.3643,0.3635,0.3634,0.3635,0.3633,0.3634,0.3632,0.3631,0.3631,0.3629,0.3626,0.3623,0.362,0.3613,0.3613,0.3609,0.3608,0.3608,0.3607,0.3604,0.3603,0.3616,0.3616,0.3616,0,0,0.3641,0.3641,0.3638,0.3634,0.3633,0.3629,0.3634,0.363,0.3627,0.3631,0.3625,0.3625,0.3623,0.3617,0.3614,0.3616,0.3604,0.3607,0.3606,0.3606,0.3604,0.3602,0.3601,0.3615,0.3615,0.3616,0,0,0.363,0.3628,0.3623,0.3622,0.3621,0.3621,0.362,0.3619,0.3619,0.3614,0.3617,0.3614,0.3608,0.3607,0.3606,0.3596,0.3599,0.3595,0.359,0.3588,0.3587,0.3586,0.3583,0.3582,0.3595,0.3595,0.3595,0,0.3623,0.3618,0.362,0.3616,0.3614,0.3618,0.3613,0.3612,0.361,0.3609,0.3611,0.3605,0.3604,0.3598,0.3596,0.3594,0.3594,0.3595,0.3587,0.3586,0.3585,0.3583,0.3582,0.3594,0.3594,0.3594,0.3594,0,0.361,0.3607,0.3602,0.3601,0.3599,0.3594,0.3596,0.3594,0.3596,0.3597,0.3592,0.3591,0.3589,0.3588,0.3589,0.3582,0.3584,0.3586,0.359,0.3583,0.3581,0.358,0.3594,0.3594,0.3594,0.3594,0,0,0.3593,0.3594,0.3592,0.3593,0.3592,0.3589,0.3586,0.3584,0.3583,0.3581,0.3578,0.3574,0.3577,0.3576,0.3577,0.3575,0.3569,0.3578,0.3578,0.3577,0.3563,0.3561,0.356,0.357,0.357,0.357,0.3563,0,0.3582,0.3576,0.3579,0.3572,0.357,0.3574,0.3571,0.3571,0.3572,0.357,0.3571,0.3568,0.3572,0.3571,0.3569,0.357,0.3566,0.357,0.3569,0.3568,0.3569,0.3559,0.3557,0.355,0.3562,0.3562,0.3562,0,0.3569,0.3568,0.3561,0.3563,0.3562,0.3559,0.3559,0.3557,0.3557,0.3558,0.3557,0.356,0.3557,0.3561,0.3557,0.356,0.356,0.356,0.356,0.356,0.3565,0.3559,0.3548,0.3547,0.3561,0.3561,0.3561,0,0.3558,0.3555,0.3552,0.3551,0.3553,0.3551,0.3552,0.3552,0.3551,0.3551,0.3551,0.355,0.3549,0.3548,0.3551,0.3554,0.3547,0.3552,0.3549,0.3549,0.3547,0.3547,0.3536,0.3546,0.3546,0.3546,0.3546,0,0.3546,0.3543,0.3547,0.3545,0.3541,0.3544,0.3541,0.3542,0.3542,0.3541,0.3544,0.3543,0.3546,0.3545,0.3547,0.3544,0.3544,0.3545,0.3545,0.3545,0.3545,0.3545,0.3545,0.3546,0.3546,0.3546,0.3546,0,0.3534,0.3537,0.3533,0.3535,0.3536,0.3533,0.3535,0.3534,0.3535,0.3533,0.3533,0.3536,0.3535,0.3537,0.3536,0.3538,0.3535,0.3536,0.3535,0.3535,0.3532,0.3533,0.3521,0.352,0.353,0.353,0.353,0,0.3526,0.3524,0.3526,0.3526,0.3526,0.3525,0.3525,0.3529,0.3528,0.3529,0.3528,0.3527,0.3527,0.3525,0.3527,0.3527,0.3529,0.3525,0.3528,0.3528,0.3529,0.353,0.353,0.3524,0.3524,0.3524,0.3523,0,0.3513,0.3515,0.3515,0.3515,0.3515,0.3515,0.3516,0.3515,0.3519,0.3519,0.3518,0.3518,0.3518,0.3518,0.3518,0.3519,0.3522,0.3522,0.3522,0.3521,0.3521,0.3522,0.3533,0.3523,0.3523,0.3523,0.3523,0.3523,0.3504,0.3502,0.3504,0.3504,0.3505,0.3506,0.3505,0.3507,0.3507,0.3507,0.351,0.3509,0.3511,0.3512,0.3512,0.3512,0.3514,0.3513,0.3513,0.3513,0.3513,0.3521,0.3512,0.3512,0.3512,0.3512,0.3512,0,0.3492,0.3493,0.3493,0.3495,0.3495,0.3498,0.3499,0.3499,0.3499,0.35,0.3501,0.3501,0.3501,0.3503,0.3504,0.3503,0.3505,0.3503,0.3504,0.3504,0.351,0.3511,0.3502,0.3502,0.3502,0.3502,0.3502,0.3502,0.3485,0.3483,0.3486,0.3485,0.3487,0.3487,0.3487,0.3488,0.349,0.349,0.349,0.3492,0.3494,0.3495,0.3496,0.3497,0.3497,0.3495,0.3496,0.3502,0.3503,0.3504,0.3505,0.3495,0.3495,0.349,0.349,0.349]},{"header":{"parameterUnit":"m.s-1","parameterCategory":1,"la1":30.2991,"la2":30.254,"lo1":-89.0895,"lo2":-89.0444,"dx":0.0017,"dy":0.0017,"nx":28,"ny":28,"refTime":"2022-12-29T15:00:00:Z","depth":0,"parameterNumber":3,"parameterNumberName":"V-component_of_WINDS"},"data":[0,0,0,0,0,0,0,0,0,0,0,0,0,0,0,0,0,0,0,0,0,0,0,0,0,0,0,0,0,0,0,0,0,0,0,0,0,0,0,0,0,0,0,0,0,0,0,0,0,0,0,0,0,0,0,0,0,0,3.7463,3.7464,0,3.757,3.7571,3.7572,3.7594,3.7594,3.7593,3.7592,3.7703,3.7707,3.771,0,0,0,0,0,0,0,0,0,0,0,0,0,3.7279,3.7282,3.7462,3.7464,3.7465,3.757,3.7571,3.7573,3.7594,3.7593,3.7592,3.7592,3.7702,3.7706,3.7711,0,0,0,0,0,0,0,0,0,0,0,0,0,3.7369,3.7283,3.7462,3.7489,3.7492,3.757,3.7571,3.7573,3.7595,3.7593,3.7592,3.7591,3.77,3.7706,3.7711,3.7771,0,0,3.7728,3.7731,0,0,0,0,0,0,0,0,3.7364,3.7376,3.7483,3.7487,3.7491,3.7567,3.7547,3.7639,3.7595,3.7556,3.7592,3.759,3.7659,3.7668,3.7691,3.7776,3.7781,3.7729,3.7732,3.7735,3.7736,0,0,0,0,0,0,0,3.7358,3.7372,3.7505,3.7485,3.749,3.7496,3.7507,3.7565,3.7613,3.7559,3.7561,3.7573,3.7661,3.7685,3.7694,3.7782,3.7729,3.7734,3.7737,3.7739,3.7925,3.7926,0,0,0,0,0,0,3.7347,3.7366,3.7502,3.7508,3.7423,3.75,3.7513,3.7544,3.7612,3.7622,3.7574,3.7574,3.7676,3.7687,3.7698,3.7774,3.7735,3.774,3.7743,3.7923,3.7925,3.7927,0,0,0,0,0,0,3.7343,3.7359,3.7497,3.7438,3.7456,3.7505,3.7539,3.7547,3.7572,3.7624,3.7633,3.759,3.7676,3.769,3.7753,3.7778,3.7742,3.7748,3.7921,3.7924,3.7926,3.7926,0,0,0,0,0,0,3.7337,3.7357,3.7379,3.7438,3.7459,3.755,3.7541,3.755,3.7581,3.7582,3.7641,3.765,3.7676,3.7745,3.7759,3.7785,3.7752,3.7919,3.7923,3.7925,3.7924,3.7928,3.7932,0,0,0,0,0,3.7331,3.7374,3.738,3.7396,3.7488,3.7551,3.7563,3.7592,3.7583,3.7606,3.7641,3.7648,3.7773,3.7751,3.7767,3.7796,3.7918,3.7922,3.7925,3.7922,3.7927,3.7932,0,0,0,0,0,0,3.7317,3.7382,3.739,3.7454,3.7497,3.7555,3.7585,3.7596,3.7643,3.7641,3.7675,3.7689,3.7751,3.7779,3.7753,3.7858,3.7845,3.7852,3.7838,3.7843,3.7846,3.7839,3.7757,0,0,0,0,0,3.7321,3.7367,3.7422,3.7473,3.7494,3.7536,3.7565,3.7583,3.7629,3.7648,3.7686,3.7732,3.7781,3.7813,3.7862,3.7928,3.7943,3.7956,3.7959,3.7962,3.7969,3.8009,3.8016,3.7939,3.7939,3.7938,0,0,3.7331,3.7372,3.7399,3.7471,3.7507,3.7555,3.7551,3.7601,3.7638,3.7656,3.7719,3.7748,3.7801,3.7867,3.7898,3.7893,3.7993,3.7967,3.7969,3.7974,3.8014,3.8021,3.8027,3.7941,3.7941,3.794,0,0,3.7373,3.7408,3.7456,3.7492,3.7546,3.7574,3.7586,3.7643,3.7664,3.7727,3.7743,3.7787,3.787,3.7909,3.7939,3.7998,3.8008,3.8013,3.8033,3.8072,3.8078,3.8084,3.8108,3.8116,3.8018,3.8018,3.8018,0,3.7378,3.745,3.7479,3.753,3.7562,3.7581,3.7631,3.7665,3.7732,3.7755,3.7748,3.7856,3.7892,3.7969,3.7984,3.8006,3.8023,3.8007,3.8075,3.8081,3.8087,3.811,3.8119,3.8019,3.8019,3.8019,3.8019,0,3.7456,3.7505,3.7538,3.7603,3.7639,3.7689,3.7727,3.776,3.7776,3.7805,3.7871,3.7915,3.7975,3.7994,3.8009,3.8074,3.8069,3.8068,3.8056,3.8094,3.8117,3.8126,3.8019,3.8019,3.8019,3.8019,0,0,3.7492,3.7574,3.7586,3.7617,3.7679,3.7719,3.7771,3.7829,3.7858,3.7904,3.795,3.8021,3.8022,3.8056,3.8076,3.811,3.8158,3.8105,3.8107,3.8116,3.8235,3.8238,3.8247,3.8164,3.8166,3.8167,3.8232,0,3.7544,3.7637,3.7666,3.7744,3.7792,3.7811,3.7856,3.79,3.7929,3.7975,3.8007,3.8058,3.8053,3.8075,3.8109,3.8145,3.8183,3.814,3.8209,3.8211,3.8198,3.8259,3.8261,3.8319,3.8241,3.8242,3.8243,0,3.7617,3.7666,3.7749,3.7808,3.7829,3.7869,3.7926,3.7969,3.802,3.8039,3.8078,3.8096,3.8152,3.8136,3.8215,3.8186,3.8216,3.8238,3.8241,3.825,3.8231,3.8272,3.8339,3.8348,3.8257,3.8256,3.8255,0,3.7639,3.7725,3.7787,3.7813,3.7882,3.791,3.794,3.799,3.8024,3.8074,3.8097,3.8152,3.8183,3.8227,3.826,3.8244,3.8338,3.8323,3.8357,3.8357,3.8378,3.8377,3.8453,3.8393,3.8393,3.8392,3.8392,0,3.7696,3.7747,3.7798,3.7836,3.7895,3.7928,3.7985,3.8016,3.806,3.8106,3.8125,3.8168,3.8208,3.8257,3.8283,3.8347,3.836,3.8378,3.8385,3.8378,3.8376,3.84,3.8397,3.8395,3.8394,3.8394,3.8393,0,3.7731,3.7767,3.7836,3.7897,3.7913,3.7954,3.8006,3.8045,3.8075,3.8133,3.8148,3.8195,3.8254,3.8291,3.8364,3.8382,3.8454,3.8457,3.8437,3.844,3.8473,3.8471,3.8569,3.8585,3.8512,3.8513,3.8513,0,3.7766,3.7806,3.7871,3.7903,3.7934,3.7985,3.8021,3.8055,3.8091,3.8153,3.8185,3.8245,3.8294,3.8387,3.8429,3.8486,3.8494,3.8524,3.8503,3.8495,3.8498,3.8496,3.8502,3.8529,3.8529,3.853,3.853,0,3.7825,3.7842,3.7892,3.7949,3.7991,3.8037,3.8083,3.8109,3.8151,3.8191,3.8251,3.829,3.8367,3.8427,3.8488,3.8521,3.8534,3.8536,3.8548,3.8543,3.853,3.854,3.8449,3.8535,3.8534,3.8534,3.8534,3.8533,3.7864,3.7901,3.7954,3.801,3.8048,3.8092,3.8132,3.8168,3.8218,3.8283,3.83,3.8364,3.8417,3.8501,3.8535,3.8586,3.8582,3.8598,3.8602,3.8607,3.8609,3.852,3.8597,3.8597,3.8597,3.8597,3.8597,0,3.7926,3.7962,3.8012,3.8078,3.8122,3.813,3.8182,3.8219,3.8275,3.8323,3.8372,3.8442,3.8501,3.8548,3.8609,3.8642,3.8649,3.8657,3.8656,3.8664,3.8607,3.8593,3.865,3.865,3.865,3.865,3.865,3.865,3.7965,3.803,3.8053,3.8138,3.8173,3.8235,3.8265,3.8306,3.8345,3.8423,3.8472,3.8502,3.855,3.8615,3.8671,3.8683,3.8706,3.8713,3.8727,3.8673,3.8667,3.8662,3.8649,3.8717,3.8717,3.878,3.878,3.8781]}]]